FW6202 Weather Reports


Display with metric or nautical units.
time (UTC)temp
F
wind
direction
speed
MPH
gust
MPH
rain 1hr
in
rain 24hr
in
rain mn
in
humidity
%
barometer
mb
20220528205541 67 149 0.0 2.0 0.07 0.30 0.30 91 1006.6
20220528205041 68 259 0.0 3.0 0.06 0.28 0.28 91 1006.8
20220528204540 68 259 0.0 4.0 0.05 0.28 0.28 90 1006.8
20220528204040 69 179 1.0 4.0 0.05 0.28 0.28 91 1006.7
20220528203540 69 305 1.0 4.0 0.00 0.23 0.23 90 1006.4
20220528203040 69 179 0.0 2.0 0.00 0.23 0.23 89 1006.0
20220528202544 69 174 1.0 3.0 0.00 0.23 0.23 89 1006.0
20220528202042 69 183 1.0 3.0 0.00 0.23 0.23 89 1005.8
20220528201543 69 189 1.0 3.0 0.00 0.23 0.23 89 1005.8
20220528201042 69 191 1.0 3.0 0.00 0.23 0.23 89 1005.6
20220528200539 69 185 1.0 3.0 0.00 0.23 0.23 88 1005.6
20220528200039 69 148 1.0 3.0 0.00 0.23 0.23 88 1005.6
20220528195538 69 122 1.0 4.0 0.00 0.23 0.23 88 1005.5
20220528195040 69 180 1.0 4.0 0.00 0.23 0.23 88 1005.5
20220528194543 70 169 1.0 3.0 0.00 0.23 0.23 88 1005.5
20220528194038 70 174 1.0 3.0 0.00 0.23 0.23 88 1005.5
20220528193540 70 178 1.0 4.0 0.00 0.23 0.23 89 1005.5
20220528193038 69 117 2.0 4.0 0.00 0.23 0.23 89 1005.5
20220528192538 69 132 1.0 4.0 0.00 0.23 0.23 90 1005.4
20220528192039 69 129 2.0 4.0 0.00 0.23 0.23 90 1005.4
20220528191538 69 120 2.0 3.0 0.00 0.23 0.23 90 1005.4
20220528191034 68 156 1.0 3.0 0.00 0.23 0.23 93 1005.5
20220528190534 68 130 1.0 3.0 0.00 0.23 0.23 93 1005.6
20220528190051 67 130 1.0 3.0 0.00 0.23 0.23 93 1005.7
20220528185537 67 130 1.0 3.0 0.00 0.23 0.23 93 1005.8
20220528185034 67 118 1.0 3.0 0.00 0.23 0.23 92 1005.7
20220528184535 67 118 1.0 4.0 0.00 0.23 0.23 92 1005.7
20220528184036 67 128 1.0 4.0 0.00 0.23 0.23 91 1005.6
20220528183533 67 131 2.0 4.0 0.00 0.23 0.23 90 1005.6
20220528183033 68 134 2.0 4.0 0.00 0.23 0.23 90 1005.4
20220528182537 68 124 2.0 4.0 0.00 0.23 0.23 91 1005.6
20220528182032 68 127 1.0 4.0 0.00 0.23 0.23 91 1005.5
20220528181543 69 143 2.0 4.0 0.00 0.23 0.23 91 1005.7
20220528181035 68 140 2.0 4.0 0.00 0.23 0.23 90 1005.6
20220528180532 68 116 2.0 4.0 0.00 0.23 0.23 90 1005.8
20220528180031 69 122 1.0 4.0 0.00 0.23 0.23 91 1006.0
20220528175535 69 149 1.0 4.0 0.00 0.23 0.23 92 1005.7
20220528175031 68 158 1.0 4.0 0.00 0.23 0.23 91 1005.7
20220528174533 69 134 2.0 4.0 0.00 0.23 0.23 91 1005.7
20220528174032 69 85 2.0 4.0 0.00 0.23 0.23 91 1005.8
20220528173529 69 111 2.0 3.0 0.00 0.23 0.23 90 1005.8
20220528173033 69 151 0.0 3.0 0.00 0.23 0.23 91 1005.9
20220528172528 69 131 2.0 5.0 0.00 0.23 0.23 92 1005.9
20220528172026 68 124 0.0 5.0 0.00 0.23 0.23 92 1005.9
20220528171536 68 150 1.0 4.0 0.00 0.23 0.23 92 1006.2
20220528171025 68 67 1.0 4.0 0.00 0.23 0.23 92 1006.3
20220528170523 67 129 1.0 4.0 0.00 0.23 0.23 93 1006.3
20220528170022 67 165 1.0 6.0 0.00 0.23 0.23 93 1006.4
20220528165525 67 132 1.0 6.0 0.00 0.23 0.23 94 1006.4
20220528165021 67 193 0.0 3.0 0.00 0.23 0.23 93 1006.4
20220528164521 66 159 1.0 3.0 0.00 0.23 0.23 94 1006.5
20220528164021 66 78 1.0 3.0 0.00 0.23 0.23 94 1006.4
20220528163520 66 107 1.0 3.0 0.00 0.23 0.23 94 1006.4
20220528163020 66 184 1.0 3.0 0.00 0.23 0.23 94 1006.5
20220528162520 66 216 1.0 3.0 0.00 0.23 0.23 94 1006.6
20220528162022 66 151 1.0 3.0 0.00 0.23 0.23 94 1006.7
20220528161532 66 180 1.0 3.0 0.00 0.23 0.23 94 1006.7
20220528161018 66 189 1.0 3.0 0.00 0.23 0.23 95 1006.6
20220528160521 66 115 1.0 3.0 0.00 0.23 0.23 95 1006.6
20220528160033 67 80 1.0 3.0 0.00 0.23 0.23 96 1006.5
20220528155518 67 116 1.0 3.0 0.00 0.23 0.23 96 1006.4
20220528155017 67 182 1.0 2.0 0.00 0.23 0.23 97 1006.4
20220528154517 66 205 0.0 2.0 0.00 0.23 0.23 98 1006.6
20220528154017 66 230 0.0 2.0 0.00 0.23 0.23 98 1006.5
20220528153515 66 232 0.0 2.0 0.00 0.23 0.23 98 1006.6
20220528153018 66 232 0.0 3.0 0.00 0.23 0.23 98 1006.7
20220528152514 66 183 1.0 3.0 0.00 0.23 0.23 98 1006.6
20220528152014 65 223 0.0 2.0 0.00 0.23 0.23 99 1006.6
20220528151516 65 230 0.0 2.0 0.00 0.23 0.23 99 1006.6
20220528151014 65 230 0.0 3.0 0.00 0.23 0.23 99 1006.5
20220528150522 64 124 1.0 3.0 0.00 0.23 0.23 99 1006.6
20220528150018 64 255 1.0 2.0 0.00 0.23 0.23 99 1006.6
20220528145515 64 235 0.0 3.0 0.00 0.23 0.23 98 1006.7
20220528145012 64 159 0.0 3.0 0.00 0.23 0.23 98 1006.7
20220528144527 64 38 0.0 2.0 0.00 0.23 0.23 98 1006.7
20220528144012 64 117 0.0 4.0 0.00 0.23 0.23 99 1006.8
20220528143511 64 80 0.0 4.0 0.00 0.23 0.23 99 1006.9
20220528143012 64 235 1.0 4.0 0.00 0.23 0.23 99 1006.8
20220528142512 64 165 1.0 3.0 0.00 0.23 0.23 99 1006.9
20220528142011 65 159 1.0 3.0 0.00 0.23 0.23 99 1006.9
20220528141511 65 230 0.0 3.0 0.00 0.23 0.23 99 1006.9
20220528141010 64 163 1.0 3.0 0.00 0.23 0.23 99 1006.8
20220528140514 65 97 1.0 3.0 0.00 0.23 0.23 99 1006.9
20220528140010 65 16 0.0 3.0 0.00 0.23 0.23 99 1006.8
20220528135510 64 162 0.0 2.0 0.00 0.23 0.23 99 1006.8
20220528135010 64 162 0.0 2.0 0.00 0.23 0.23 99 1006.9
20220528134518 64 160 1.0 2.0 0.00 0.23 0.23 99 1007.0
20220528134008 63 130 0.0 3.0 0.00 0.23 0.23 99 1007.0
20220528133512 63 130 1.0 3.0 0.00 0.23 0.23 99 1007.0
20220528133008 63 126 0.0 2.0 0.00 0.23 0.23 99 1007.1
20220528132508 63 124 1.0 2.0 0.00 0.23 0.23 99 1007.2
20220528132010 63 124 1.0 2.0 0.00 0.23 0.23 98 1007.4
20220528131512 63 124 1.0 3.0 0.00 0.23 0.23 98 1007.4
20220528131006 63 124 1.0 3.0 0.00 0.23 0.23 98 1007.4
20220528130509 64 132 2.0 3.0 0.00 0.23 0.23 98 1007.4
20220528130007 65 122 2.0 4.0 0.00 0.23 0.23 98 1007.3
20220528125506 66 90 1.0 3.0 0.00 0.23 0.23 99 1007.2
20220528125005 65 90 1.0 3.0 0.00 0.23 0.23 99 1007.1
20220528124507 65 160 1.0 3.0 0.00 0.23 0.23 99 1007.0
20220528124006 65 186 0.0 2.0 0.00 0.23 0.23 99 1007.0
20220528123504 65 186 0.0 2.0 0.00 0.23 0.23 99 1007.0
20220528123006 65 193 0.0 2.0 0.00 0.23 0.23 99 1007.0
20220528122504 65 195 1.0 2.0 0.00 0.23 0.23 99 1007.1
20220528122003 64 145 0.0 3.0 0.00 0.23 0.23 99 1007.1
20220528121502 64 145 1.0 3.0 0.00 0.23 0.23 99 1007.2
20220528121001 63 148 1.0 2.0 0.00 0.23 0.23 99 1007.2
20220528120503 63 164 0.0 2.0 0.00 0.23 0.23 99 1007.4
20220528120001 63 164 0.0 2.0 0.00 0.23 0.23 99 1007.5
20220528115501 63 164 1.0 2.0 0.00 0.23 0.23 99 1007.6
20220528115103 63 164 0.0 2.0 0.00 0.23 0.23 99 1007.6
20220528114604 63 164 0.0 2.0 0.00 0.23 0.23 99 1007.6
20220528114100 63 107 0.0 2.0 0.00 0.23 0.23 99 1007.6
20220528113559 63 119 0.0 2.0 0.00 0.23 0.23 98 1007.7
20220528113107 63 92 0.0 2.0 0.00 0.23 0.23 98 1007.5
20220528112606 62 92 0.0 2.0 0.00 0.23 0.23 99 1007.5
20220528112104 62 115 0.0 1.0 0.00 0.23 0.23 99 1007.5
20220528111559 62 115 0.0 2.0 0.00 0.23 0.23 98 1007.6
20220528111059 62 115 0.0 2.0 0.00 0.23 0.23 98 1007.7
20220528110603 62 115 1.0 2.0 0.00 0.23 0.23 98 1007.7
20220528110058 62 115 1.0 2.0 0.00 0.23 0.23 98 1007.6
20220528105558 62 115 1.0 2.0 0.00 0.23 0.23 99 1007.5
20220528105100 62 115 0.0 2.0 0.00 0.23 0.23 98 1007.7
20220528104558 61 115 0.0 2.0 0.00 0.23 0.23 98 1007.5
20220528104057 61 115 0.0 2.0 0.00 0.23 0.23 98 1007.5
20220528103601 61 115 1.0 3.0 0.00 0.23 0.23 98 1007.5
20220528103057 61 115 1.0 3.0 0.00 0.23 0.23 98 1007.4
20220528102556 61 115 1.0 2.0 0.00 0.23 0.23 98 1007.2
20220528102056 62 115 1.0 2.0 0.00 0.23 0.23 98 1007.3
20220528101555 62 115 1.0 2.0 0.00 0.23 0.23 98 1007.4
20220528101056 62 115 1.0 2.0 0.00 0.23 0.23 98 1007.5
20220528100553 62 115 1.0 3.0 0.01 0.23 0.23 97 1007.6
20220528100057 62 115 1.0 3.0 0.02 0.23 0.23 98 1007.5
20220528095556 62 115 0.0 2.0 0.05 0.23 0.23 98 1007.5
20220528095052 62 115 0.0 2.0 0.13 0.23 0.23 98 1007.4
20220528094552 62 115 0.0 2.0 0.18 0.23 0.23 98 1007.5
20220528094051 62 115 1.0 2.0 0.19 0.23 0.23 98 1007.6
20220528093551 63 115 1.0 3.0 0.19 0.23 0.23 97 1007.6
20220528093056 63 115 1.0 3.0 0.19 0.23 0.23 97 1007.7
20220528092552 63 111 1.0 3.0 0.19 0.23 0.23 97 1007.9
20220528092051 63 93 1.0 3.0 0.19 0.23 0.23 98 1007.8
20220528091550 63 67 0.0 2.0 0.19 0.23 0.23 98 1007.8
20220528091049 63 67 1.0 3.0 0.19 0.23 0.23 98 1007.9
20220528090549 63 140 1.0 3.0 0.18 0.22 0.22 98 1008.0
20220528090048 63 140 1.0 2.0 0.18 0.21 0.21 98 1007.9
20220528085551 63 140 0.0 2.0 0.13 0.16 0.16 97 1008.0
20220528085046 63 140 0.0 2.0 0.06 0.08 0.08 97 1007.9
20220528084549 63 139 0.0 3.0 0.03 0.05 0.05 97 1007.8
20220528084049 63 139 1.0 2.0 0.02 0.04 0.04 97 1007.8
20220528083546 63 139 0.0 2.0 0.03 0.04 0.04 97 1007.7
20220528083047 63 148 0.0 2.0 0.04 0.04 0.04 97 1007.8
20220528082547 63 148 0.0 1.0 0.04 0.04 0.04 97 1007.8
20220528082045 63 148 0.0 1.0 0.04 0.04 0.04 97 1007.8
20220528081552 63 148 0.0 2.0 0.04 0.04 0.04 96 1007.7
20220528081042 63 148 0.0 2.0 0.04 0.04 0.04 96 1007.9
20220528080542 63 148 0.0 2.0 0.04 0.04 0.04 96 1008.0
20220528080041 63 173 0.0 2.0 0.03 0.03 0.03 96 1008.0
20220528075545 63 247 0.0 3.0 0.03 0.03 0.03 96 1008.1
20220528075045 63 251 0.0 3.0 0.02 0.02 0.02 96 1008.2
20220528074544 63 115 0.0 2.0 0.02 0.02 0.02 96 1008.2
20220528074038 63 122 0.0 2.0 0.02 0.02 0.02 95 1008.3
20220528073539 63 132 0.0 2.0 0.01 0.01 0.01 95 1008.3
20220528073038 63 132 0.0 2.0 0.00 0.00 0.00 95 1008.4
20220528072539 63 132 0.0 3.0 0.00 0.00 0.00 95 1008.5
20220528072038 63 132 1.0 4.0 0.00 0.00 0.00 95 1008.8
20220528071548 63 128 1.0 3.0 0.00 0.00 0.00 95 1008.9
20220528071043 63 128 1.0 3.0 0.00 0.00 0.00 95 1008.9
20220528070535 63 128 1.0 3.0 0.00 0.00 0.00 95 1009.0
20220528070036 63 124 0.0 2.0 0.00 0.00 0.00 95 1008.9
20220528065535 63 123 0.0 2.0 0.00 0.00 0.00 95 1008.9
20220528065035 63 123 1.0 3.0 0.00 0.00 0.00 94 1009.0
20220528064535 63 118 1.0 3.0 0.00 0.00 0.00 94 1008.9
20220528064033 63 149 1.0 3.0 0.00 0.00 0.00 94 1008.9
20220528063535 63 149 0.0 4.0 0.00 0.00 0.00 94 1008.9
20220528063033 63 146 1.0 4.0 0.00 0.00 0.00 94 1009.0
20220528062533 63 121 0.0 3.0 0.00 0.00 0.00 94 1009.0
20220528062032 63 145 1.0 5.0 0.00 0.00 0.00 94 1009.0
20220528061533 63 207 1.0 5.0 0.00 0.00 0.00 94 1009.2
20220528061031 63 115 1.0 3.0 0.00 0.00 0.00 94 1009.2
20220528060540 64 167 1.0 3.0 0.00 0.00 0.00 94 1009.2
20220528060030 64 186 1.0 3.0 0.00 0.00 0.00 94 1009.2
20220528055530 64 176 1.0 3.0 0.00 0.00 0.00 94 1009.1
20220528055029 64 72 1.0 4.0 0.00 0.00 0.00 93 1009.3
20220528054529 64 127 1.0 4.0 0.00 0.00 0.00 93 1009.2
20220528054028 64 162 1.0 4.0 0.00 0.00 0.00 93 1009.3
20220528053529 64 149 1.0 4.0 0.00 0.00 0.00 93 1009.3
20220528053028 64 153 1.0 3.0 0.00 0.00 0.00 93 1009.3
20220528052526 64 136 1.0 4.0 0.00 0.00 0.00 92 1009.3
20220528052031 64 153 2.0 4.0 0.00 0.00 0.00 92 1009.4
20220528051525 64 130 1.0 4.0 0.00 0.00 0.00 92 1009.5
20220528051030 64 133 1.0 4.0 0.00 0.00 0.00 93 1009.6
20220528050528 65 148 1.0 4.0 0.00 0.00 0.00 93 1009.6
20220528050043 65 125 1.0 4.0 0.00 0.00 0.00 93 1009.6
20220528045524 64 159 1.0 3.0 0.00 0.00 0.00 93 1009.7
20220528045025 64 168 1.0 4.0 0.00 0.00 0.00 93 1009.8
20220528044523 64 128 1.0 4.0 0.00 0.00 0.00 94 1009.7
20220528044026 64 353 1.0 6.0 0.00 0.00 0.00 94 1010.0
20220528043524 64 140 1.0 6.0 0.00 0.00 0.00 94 1009.9
20220528043021 64 145 1.0 3.0 0.00 0.00 0.00 94 1009.9
20220528042524 64 148 1.0 4.0 0.00 0.00 0.00 93 1010.1
20220528042022 64 76 1.0 4.0 0.00 0.00 0.00 93 1010.2
20220528041520 64 143 1.0 4.0 0.00 0.00 0.00 94 1010.1
20220528041027 64 132 1.0 3.0 0.00 0.00 0.00 94 1010.1
20220528040522 64 157 1.0 3.0 0.00 0.00 0.00 94 1010.2
20220528040020 64 182 1.0 4.0 0.00 0.00 0.00 94 1010.3
20220528035517 64 114 1.0 4.0 0.00 0.00 0.00 94 1010.2
20220528035016 64 168 1.0 4.0 0.00 0.00 0.00 95 1010.4
20220528034516 63 150 1.0 3.0 0.00 0.00 0.00 95 1010.3
20220528034017 63 168 0.0 3.0 0.00 0.00 0.00 95 1010.5
20220528033523 63 126 1.0 4.0 0.00 0.00 0.00 95 1010.5
20220528033016 63 122 1.0 4.0 0.00 0.00 0.00 95 1010.6
20220528032516 63 153 1.0 4.0 0.00 0.00 0.00 95 1010.5
20220528032015 62 201 1.0 3.0 0.00 0.00 0.00 95 1010.5
20220528031516 62 163 1.0 4.0 0.00 0.00 0.00 96 1010.5
20220528031019 62 207 0.0 4.0 0.00 0.00 0.00 96 1010.7
20220528030515 62 164 1.0 2.0 0.00 0.00 0.00 96 1010.5
20220528030015 62 134 1.0 3.0 0.00 0.00 0.00 95 1010.4
20220528025515 62 134 1.0 4.0 0.00 0.00 0.00 95 1010.4
20220528025018 63 134 1.0 4.0 0.00 0.00 0.00 95 1010.3
20220528024518 63 151 2.0 4.0 0.00 0.00 0.00 95 1010.2
20220528024018 63 146 2.0 6.0 0.00 0.00 0.00 95 1010.3
20220528023517 64 141 2.0 6.0 0.00 0.00 0.00 95 1010.2
20220528023022 64 148 2.0 6.0 0.00 0.00 0.00 95 1010.3
20220528022521 64 130 3.0 6.0 0.00 0.00 0.00 95 1010.2
20220528022017 64 134 3.0 5.0 0.00 0.00 0.00 95 1010.1
20220528021512 64 134 3.0 5.0 0.00 0.00 0.00 95 1010.2
20220528021011 64 131 3.0 5.0 0.00 0.00 0.00 94 1010.2
20220528020513 64 129 2.0 5.0 0.00 0.00 0.00 94 1010.2
20220528020010 64 138 2.0 4.0 0.00 0.00 0.00 93 1010.2
20220528015510 65 136 2.0 4.0 0.00 0.00 0.00 93 1010.5
20220528015009 65 135 2.0 4.0 0.00 0.00 0.00 93 1010.5
20220528014509 65 134 3.0 4.0 0.00 0.00 0.00 93 1010.5
20220528014011 66 130 3.0 4.0 0.00 0.00 0.00 92 1010.5
20220528013507 66 139 2.0 4.0 0.00 0.00 0.00 92 1010.7
20220528013007 66 138 2.0 4.0 0.00 0.00 0.00 92 1010.8
20220528012507 66 127 2.0 4.0 0.00 0.00 0.00 92 1010.9
20220528012006 67 128 2.0 4.0 0.00 0.00 0.00 91 1011.0
20220528011506 67 129 2.0 6.0 0.00 0.00 0.00 91 1011.0
20220528011006 67 118 2.0 6.0 0.00 0.00 0.00 90 1011.1
20220528010504 68 132 2.0 4.0 0.00 0.00 0.00 90 1011.2
20220528010004 68 138 2.0 4.0 0.00 0.00 0.00 89 1011.2
20220528005503 69 147 2.0 4.0 0.00 0.00 0.00 89 1011.1
20220528005003 69 142 2.0 4.0 0.00 0.00 0.00 89 1011.2
20220528004503 69 132 1.0 4.0 0.00 0.00 0.00 89 1011.3
20220528004002 69 62 1.0 4.0 0.00 0.00 0.00 89 1011.4
20220528003506 69 158 1.0 3.0 0.00 0.00 0.00 89 1011.4
20220528003006 69 134 1.0 3.0 0.00 0.00 0.00 89 1011.3
20220528002506 69 126 1.0 4.0 0.00 0.00 0.00 89 1011.3
20220528002002 69 122 1.0 5.0 0.00 0.00 0.00 89 1011.4
20220528001514 69 113 2.0 5.0 0.00 0.00 0.00 88 1011.4
20220528001002 69 105 1.0 3.0 0.00 0.00 0.00 87 1011.3
20220528000501 69 161 1.0 4.0 0.00 0.00 0.00 87 1011.4
20220528000001 69 161 2.0 4.0 0.00 0.00 0.00 87 1011.2
20220527235505 70 167 1.0 6.0 0.00 0.00 0.00 87 1011.3
20220527235002 70 151 2.0 5.0 0.00 0.00 0.00 87 1011.3
20220527234600 70 145 1.0 5.0 0.00 0.00 0.00 86 1011.3
20220527234102 70 143 1.0 4.0 0.00 0.00 0.00 87 1011.3
20220527233600 70 143 1.0 3.0 0.00 0.00 0.00 87 1011.3
20220527233100 70 156 1.0 3.0 0.00 0.00 0.00 86 1011.3
20220527232603 69 182 1.0 3.0 0.00 0.00 0.00 85 1011.3
20220527232059 70 171 1.0 3.0 0.00 0.00 0.00 84 1011.3
20220527231558 70 136 1.0 4.0 0.00 0.00 0.00 83 1011.3
20220527231058 70 169 1.0 4.0 0.00 0.00 0.00 83 1011.5
20220527230556 70 150 1.0 3.0 0.00 0.00 0.00 83 1011.5
20220527230057 70 143 1.0 3.0 0.00 0.00 0.00 82 1011.6
20220527225558 71 152 1.0 4.0 0.00 0.00 0.00 82 1011.6
20220527225056 71 151 2.0 4.0 0.00 0.00 0.00 82 1011.5
20220527224556 71 165 1.0 3.0 0.00 0.00 0.00 81 1011.6
20220527224057 71 145 1.0 3.0 0.00 0.00 0.00 81 1011.7
20220527223556 72 112 1.0 3.0 0.00 0.00 0.00 81 1011.6
20220527223103 72 154 1.0 3.0 0.00 0.00 0.00 81 1011.6
20220527222556 72 151 1.0 3.0 0.00 0.00 0.00 81 1011.7
20220527222057 72 337 1.0 3.0 0.00 0.00 0.00 82 1011.8
20220527221607 71 163 1.0 3.0 0.00 0.00 0.00 83 1011.7
20220527221053 71 166 1.0 3.0 0.00 0.00 0.00 84 1011.7
20220527220552 71 138 0.0 3.0 0.00 0.00 0.00 84 1011.9
20220527220107 70 138 1.0 3.0 0.00 0.00 0.00 85 1011.9
20220527215551 70 135 0.0 3.0 0.00 0.00 0.00 84 1011.9
20220527215053 70 135 0.0 3.0 0.00 0.00 0.00 83 1011.9
20220527214552 70 135 1.0 4.0 0.00 0.00 0.00 83 1011.9
20220527214051 70 130 2.0 4.0 0.00 0.00 0.00 82 1011.9
20220527213551 70 128 2.0 4.0 0.00 0.00 0.00 82 1011.8
20220527213051 70 136 1.0 5.0 0.00 0.00 0.00 82 1011.9
20220527212554 70 136 2.0 5.0 0.00 0.00 0.00 82 1011.8
20220527212054 70 133 2.0 4.0 0.00 0.00 0.00 81 1011.9
20220527211556 71 133 2.0 4.0 0.00 0.00 0.00 81 1011.9
20220527211053 71 128 2.0 4.0 0.00 0.00 0.00 81 1011.9
20220527210551 71 126 2.0 4.0 0.00 0.00 0.00 82 1012.0
20220527210050 71 134 1.0 4.0 0.00 0.00 0.00 81 1011.9